EW3770 Weather Reports


Display with metric or nautical units.
time (UTC)temp
F
wind
direction
speed
MPH
gust
MPH
rain 1hr
in
rain 24hr
in
rain mn
in
humidity
%
barometer
mb
20260905222703 89 185 4.0 14.0 0.00 0.00 0.00 16 1027.4
20260905221803 88 176 3.0 14.0 0.00 0.00 0.00 15 1027.4
20260905220903 88 180 2.0 13.0 0.00 0.00 0.00 14 1027.4
20260905220003 87 155 4.0 14.0 0.00 0.00 0.00 15 1027.4
20260905215403 87 119 7.0 20.0 0.00 0.00 0.00 18 1027.4
20260905214503 87 123 7.0 18.0 0.00 0.00 0.00 16 1027.4
20260905213603 87 130 3.0 15.0 0.00 0.00 0.00 18 1027.4
20260905212703 86 127 6.0 16.0 0.00 0.00 0.00 18 1027.4
20260905211824 86 115 8.0 16.0 0.00 0.00 0.00 18 1027.4
20260905210903 86 126 7.0 18.0 0.00 0.00 0.00 18 1027.4
20260905210003 86 123 8.0 17.0 0.00 0.00 0.00 18 1027.4
20260905205403 86 128 4.0 16.0 0.00 0.00 0.00 19 1027.4
20260905204503 85 127 6.0 20.0 0.00 0.00 0.00 19 1027.4
20260905203603 86 138 5.0 23.0 0.00 0.00 0.00 19 1027.4
20260905202703 85 142 4.0 23.0 0.00 0.00 0.00 19 1027.4
20260905201803 85 128 4.0 17.0 0.00 0.00 0.00 22 1027.4
20260905200903 85 123 6.0 17.0 0.00 0.00 0.00 19 1027.4
20260905200003 84 125 7.0 19.0 0.00 0.00 0.00 19 1027.4
20260905195403 84 125 7.0 21.0 0.00 0.00 0.00 21 1027.4
20260905194503 84 126 6.0 17.0 0.00 0.00 0.00 20 1027.4
20260905193603 83 130 6.0 16.0 0.00 0.00 0.00 20 1027.4
20260905192703 83 124 6.0 16.0 0.00 0.00 0.00 21 1027.4
20260905191803 83 128 6.0 20.0 0.00 0.00 0.00 21 1027.4
20260905190903 83 128 8.0 17.0 0.00 0.00 0.00 20 1027.4
20260905190003 83 135 6.0 17.0 0.00 0.00 0.00 21 1027.4
20260905185403 83 145 5.0 17.0 0.00 0.00 0.00 21 1027.4
20260905184503 83 140 3.0 15.0 0.00 0.00 0.00 20 1027.4
20260905183603 83 151 4.0 21.0 0.00 0.00 0.00 23 1027.4
20260905182704 83 140 5.0 17.0 0.00 0.00 0.00 23 1027.4
20260905181803 83 142 3.0 15.0 0.00 0.00 0.00 24 1027.4
20260905180903 83 133 4.0 13.0 0.00 0.00 0.00 24 1027.4
20260905180003 83 138 4.0 14.0 0.00 0.00 0.00 23 1027.4
20260905175404 82 144 3.0 14.0 0.00 0.00 0.00 25 1027.4
20260905174503 82 139 4.0 14.0 0.00 0.00 0.00 22 1027.4
20260905173603 82 150 2.0 11.0 0.00 0.00 0.00 23 1027.4
20260905172703 82 145 4.0 14.0 0.00 0.00 0.00 22 1027.4
20260905171803 82 146 3.0 10.0 0.00 0.00 0.00 23 1027.4
20260905170903 81 155 3.0 12.0 0.00 0.00 0.00 25 1027.4
20260905170003 81 142 3.0 15.0 0.00 0.00 0.00 26 1027.4
20260905165403 80 142 3.0 15.0 0.00 0.00 0.00 24 1027.4
20260905164524 80 164 2.0 9.0 0.00 0.00 0.00 28 1027.4
20260905163603 80 149 2.0 8.0 0.00 0.00 0.00 30 1027.4
20260905162724 79 150 3.0 14.0 0.00 0.00 0.00 30 1027.4
20260905161803 79 142 1.0 14.0 0.00 0.00 0.00 33 1027.4
20260905160903 79 147 2.0 9.0 0.00 0.00 0.00 33 1027.4
20260905160003 78 162 2.0 8.0 0.00 0.00 0.00 33 1027.4
20260905155403 78 162 2.0 7.0 0.00 0.00 0.00 34 1027.4
20260905154503 78 159 1.0 5.0 0.00 0.00 0.00 34 1027.4
20260905153603 77 190 2.0 4.0 0.00 0.00 0.00 37 1027.4
20260905152703 76 169 1.0 5.0 0.00 0.00 0.00 39 1027.4
20260905151803 76 174 1.0 4.0 0.00 0.00 0.00 40 1027.4
20260905150903 75 173 0.0 4.0 0.00 0.00 0.00 41 1027.4
20260905150003 75 173 1.0 5.0 0.00 0.00 0.00 41 1027.4
20260905145403 74 183 1.0 5.0 0.00 0.00 0.00 39 1027.4
20260905144503 74 176 2.0 6.0 0.00 0.00 0.00 38 1027.4
20260905143603 73 175 1.0 6.0 0.00 0.00 0.00 36 1027.4
20260905142703 72 181 1.0 3.0 0.00 0.00 0.00 36 1027.4
20260905141824 71 206 1.0 5.0 0.00 0.00 0.00 37 1027.4
20260905140903 70 167 0.0 4.0 0.00 0.00 0.00 39 1027.4
20260905140024 69 163 0.0 5.0 0.00 0.00 0.00 41 1027.4
20260905135424 68 164 0.0 6.0 0.00 0.00 0.00 41 1027.4
20260905134503 66 116 0.0 6.0 0.00 0.00 0.00 41 1027.4
20260905133603 66 186 1.0 4.0 0.00 0.00 0.00 40 1027.4
20260905132703 65 178 1.0 4.0 0.00 0.00 0.00 38 1027.4
20260905131824 65 173 1.0 5.0 0.00 0.00 0.00 38 1027.4
20260905130903 65 187 1.0 5.0 0.00 0.00 0.00 39 1027.4
20260905130003 65 190 1.0 3.0 0.00 0.00 0.00 38 1027.4
20260905125403 65 190 1.0 4.0 0.00 0.00 0.00 38 1027.4
20260905124503 65 190 0.0 2.0 0.00 0.00 0.00 38 1027.4
20260905123624 65 189 1.0 2.0 0.00 0.00 0.00 38 1027.4
20260905122703 66 188 0.0 3.0 0.00 0.00 0.00 37 1027.4
20260905121803 66 190 0.0 3.0 0.00 0.00 0.00 37 1027.4
20260905120903 66 193 1.0 4.0 0.00 0.00 0.00 37 1027.4
20260905120024 67 167 1.0 4.0 0.00 0.00 0.00 37 1027.4
20260905115403 67 160 1.0 4.0 0.00 0.00 0.00 37 1027.4
20260905114510 67 189 1.0 5.0 0.00 0.00 0.00 37 1027.4
20260905113603 67 160 1.0 7.0 0.00 0.00 0.00 37 1027.4
20260905112703 67 161 1.0 5.0 0.00 0.00 0.00 37 1027.4
20260905111803 67 165 1.0 4.0 0.00 0.00 0.00 37 1027.4
20260905110903 67 170 1.0 6.0 0.00 0.00 0.00 38 1027.4
20260905110003 67 196 1.0 3.0 0.00 0.00 0.00 40 1027.4
20260905105424 67 177 1.0 3.0 0.00 0.00 0.00 40 1027.4
20260905104524 67 168 1.0 4.0 0.00 0.00 0.00 41 1027.4
20260905103603 67 147 1.0 5.0 0.00 0.00 0.00 41 1027.4
20260905102703 67 162 1.0 6.0 0.00 0.00 0.00 41 1027.4
20260905101824 67 179 1.0 3.0 0.00 0.00 0.00 42 1027.4
20260905100903 67 155 1.0 3.0 0.00 0.00 0.00 42 1027.4
20260905100024 68 155 0.0 2.0 0.00 0.00 0.00 42 1027.4
20260905095403 68 158 0.0 2.0 0.00 0.00 0.00 41 1027.4
20260905094524 68 161 0.0 4.0 0.00 0.00 0.00 40 1027.4
20260905093603 69 146 1.0 3.0 0.00 0.00 0.00 40 1027.4
20260905092703 69 164 1.0 3.0 0.00 0.00 0.00 40 1027.4
20260905091803 69 161 1.0 4.0 0.00 0.00 0.00 40 1027.4
20260905090924 70 156 0.0 2.0 0.00 0.00 0.00 40 1027.4
20260905090003 70 157 1.0 5.0 0.00 0.00 0.00 40 1027.4
20260905085403 70 163 1.0 5.0 0.00 0.00 0.00 39 1027.4
20260905084503 70 168 1.0 4.0 0.00 0.00 0.00 39 1027.4
20260905083603 70 174 1.0 5.0 0.00 0.00 0.00 38 1027.4
20260905082724 70 145 1.0 5.0 0.00 0.00 0.00 37 1027.4
20260905081803 70 163 1.0 6.0 0.00 0.00 0.00 37 1027.4
20260905080903 71 145 1.0 3.0 0.00 0.00 0.00 38 1027.4
20260905080003 71 141 1.0 4.0 0.00 0.00 0.00 38 1027.4
20260905075403 71 130 1.0 5.0 0.00 0.00 0.00 39 1027.4
20260905074524 72 138 1.0 6.0 0.00 0.00 0.00 38 1027.4
20260905073624 72 160 1.0 6.0 0.00 0.00 0.00 37 1027.4
20260905072703 72 163 1.0 6.0 0.00 0.00 0.00 37 1027.4
20260905071803 73 147 0.0 4.0 0.00 0.00 0.00 36 1027.4
20260905070903 74 140 1.0 8.0 0.00 0.00 0.00 35 1027.4
20260905070003 74 150 1.0 4.0 0.00 0.00 0.00 34 1027.4
20260905065403 74 147 2.0 10.0 0.00 0.00 0.00 33 1027.4
20260905064503 74 136 2.0 12.0 0.00 0.00 0.00 32 1027.4
20260905063603 74 130 2.0 8.0 0.00 0.00 0.00 32 1027.4
20260905062703 75 139 2.0 9.0 0.00 0.00 0.00 32 1027.4
20260905061803 75 141 2.0 9.0 0.00 0.00 0.00 32 1027.4
20260905060924 75 131 2.0 10.0 0.00 0.00 0.00 32 1027.4
20260905060004 75 132 1.0 7.0 0.00 0.00 0.00 32 1027.4
20260905055403 75 129 1.0 9.0 0.00 0.00 0.00 32 1027.4
20260905054503 75 133 2.0 9.0 0.00 0.00 0.00 31 1027.4
20260905053603 75 138 2.0 7.0 0.00 0.00 0.00 31 1027.4
20260905052724 76 125 2.0 7.0 0.00 0.00 0.00 31 1027.4
20260905051824 76 131 2.0 10.0 0.00 0.00 0.00 29 1027.4
20260905050903 76 144 1.0 6.0 0.00 0.00 0.00 27 1027.4
20260905050003 76 155 2.0 10.0 0.00 0.00 0.00 26 1027.4
20260905045424 76 173 2.0 10.0 0.00 0.00 0.00 26 1027.4
20260905044503 76 7 1.0 4.0 0.00 0.00 0.00 25 1027.4
20260905043603 76 4 1.0 6.0 0.00 0.00 0.00 25 1027.4
20260905042724 77 188 1.0 5.0 0.00 0.00 0.00 24 1027.4
20260905041803 77 182 1.0 6.0 0.00 0.00 0.00 24 1027.4
20260905040903 77 170 1.0 6.0 0.00 0.00 0.00 24 1027.4
20260905040003 78 178 0.0 3.0 0.00 0.00 0.00 23 1027.4
20260905035403 78 181 0.0 3.0 0.00 0.00 0.00 23 1027.4
20260905034503 79 182 1.0 3.0 0.00 0.00 0.00 22 1027.4
20260905033624 79 189 1.0 5.0 0.00 0.00 0.00 22 1027.4
20260905032703 80 210 0.0 5.0 0.00 0.00 0.00 22 1027.4
20260905031803 80 193 2.0 7.0 0.00 0.00 0.00 21 1027.4
20260905030903 80 188 3.0 11.0 0.00 0.00 0.00 22 1027.4
20260905030003 80 202 3.0 9.0 0.00 0.00 0.00 22 1027.4
20260905025403 80 196 3.0 8.0 0.00 0.00 0.00 22 1027.4
20260905024503 81 194 2.0 8.0 0.00 0.00 0.00 23 1027.4
20260905023603 81 191 2.0 6.0 0.00 0.00 0.00 23 1027.4
20260905022703 81 167 1.0 6.0 0.00 0.00 0.00 23 1027.4
20260905021824 82 173 2.0 9.0 0.00 0.00 0.00 23 1027.4
20260905020924 82 184 2.0 9.0 0.00 0.00 0.00 23 1027.4
20260905020003 82 188 3.0 9.0 0.00 0.00 0.00 23 1027.4
20260905015403 82 193 3.0 10.0 0.00 0.00 0.00 22 1027.4
20260905014503 83 196 3.0 8.0 0.00 0.00 0.00 22 1027.4
20260905013603 83 187 4.0 10.0 0.00 0.00 0.00 22 1027.4
20260905012703 83 185 3.0 14.0 0.00 0.00 0.00 22 1027.4
20260905011803 84 185 2.0 7.0 0.00 0.00 0.00 23 1027.4
20260905010903 84 176 3.0 17.0 0.00 0.00 0.00 22 1027.4
20260905010003 84 173 3.0 17.0 0.00 0.00 0.00 22 1027.4
20260905005403 85 175 3.0 11.0 0.00 0.00 0.00 22 1027.4
20260905004503 85 184 3.0 9.0 0.00 0.00 0.00 21 1027.4
20260905003603 86 184 2.0 7.0 0.00 0.00 0.00 21 1027.4
20260905002724 86 187 4.0 11.0 0.00 0.00 0.00 20 1027.4
20260905001803 86 171 3.0 17.0 0.00 0.00 0.00 21 1027.4
20260905000903 87 180 4.0 11.0 0.00 0.00 0.00 20 1027.4
20260905000003 88 175 3.0 10.0 0.00 0.00 0.00 19 1027.4
20260904235403 88 174 3.0 12.0 0.00 0.00 0.00 19 1027.4
20260904234503 88 177 2.0 7.0 0.00 0.00 0.00 20 1027.4
20260904233603 88 180 2.0 11.0 0.00 0.00 0.00 19 1027.4
20260904232703 88 181 3.0 11.0 0.00 0.00 0.00 18 1027.4
20260904231803 88 184 4.0 16.0 0.00 0.00 0.00 18 1027.4
20260904230903 88 174 3.0 11.0 0.00 0.00 0.00 19 1027.4
20260904230003 88 185 3.0 11.0 0.00 0.00 0.00 17 1027.4
20260904225403 88 181 3.0 10.0 0.00 0.00 0.00 19 1027.4
20260904224503 88 177 3.0 8.0 0.00 0.00 0.00 17 1027.4
20260904223603 88 181 4.0 15.0 0.00 0.00 0.00 18 1027.4